Flag for Canada Weather past 2 weeks in Nelson, British Columbia, Canada

Now
71 °F

Mild.


Feels Like: 76 °F
Forecast: 52 / 74 °F
Wind: 5 mph from Southwest

Location: Nelson

Current Time: Jul 3, 2015 at 10:27:50 PM

Latest Report: Jul 3, 2015 at 10:00 PM


Visibility: N/A

Pressure: 29.73 "Hg (27.86 "Hg at 560m altitude)

Humidity: 60%

Dew point: 56 °F

Location of NelsonLocation

Historic Weather in Nelson — Graph

°F

Nelson temperature yesterday

Maximum temperature yesterday: 94 °F (at 2:00 PM)
Minimum temperature yesterday: 59 °F (at 5:00 AM)
Average temperature yesterday: 76 °F

Past Weeks' High & Low Weather Summary

 TemperatureHumidityPressure
High99 °F (Jul 3, 5:00 PM)96% (Jun 30, 12:00 AM)30.12 "Hg (Jun 30, 12:00 AM)
Low50 °F (Jun 22, 5:00 AM)15% (Jul 3, 4:00 PM)29.66 "Hg (Jul 3, 7:00 PM)
Average71 °F54%29.95 "Hg
* Reported Jun 18 9:00 PM — Jul 3 9:00 PM, Nelson, Weather by CustomWeather, © 2015

Note: Actual official high and low records may vary slightly from our data, if they occured in-between our weather recording intervals... More about our weather records

Advertising

Nelson weather history for previous 24 hours

 ConditionsComfort  
Time TempWeatherWind HumidityBarometerVisibility
9:00 PM
Fri, Jul 3
76 °FMild.3 mph52%29.69 "HgN/A
8:00 PM82 °FWarm.5 mph41%29.67 "HgN/A
7:00 PM95 °FExtremely hot.5 mph22%29.66 "HgN/A
6:00 PM99 °FExtremely hot.3 mph19%29.67 "HgN/A
5:00 PM99 °FExtremely hot.7 mph16%29.68 "HgN/A
4:00 PM98 °FExtremely hot.6 mph15%29.71 "HgN/A
3:00 PM96 °FExtremely hot.8 mph20%29.73 "HgN/A
2:00 PM96 °FExtremely hot.3 mph20%29.76 "HgN/A
1:00 PM91 °FHot.6 mph29%29.79 "HgN/A
12:00 PM90 °FHot.3 mph29%29.82 "HgN/A
11:00 AM83 °FWarm.5 mph41%29.85 "HgN/A
10:00 AM78 °FWarm.1 mph43%29.88 "HgN/A
9:00 AM74 °FMild.5 mph50%29.91 "HgN/A
8:00 AM71 °FMild.6 mph60%29.91 "HgN/A
7:00 AM64 °FMild.7 mph73%29.92 "HgN/A
6:00 AM62 °FMild.6 mph79%29.91 "HgN/A
5:00 AM61 °FCool.5 mph82%29.91 "HgN/A
4:00 AM60 °FCool.3 mph88%29.90 "HgN/A
3:00 AM62 °FCool.3 mph81%29.89 "HgN/A
2:00 AM64 °FMild.5 mph74%29.88 "HgN/A
1:00 AM65 °FMild.3 mph74%29.89 "HgN/A
12:00 AM66 °FMild.3 mph74%29.88 "HgN/A
11:00 PM
Thu, Jul 2
68 °FMild.2 mph68%29.88 "HgN/A
10:00 PM70 °FMild.3 mph60%29.87 "HgN/A
Weather by CustomWeather, © 2015

See weather overviewHow to use our weather pages